Terminal Aerodrome Forecast
Issued by NWS

Home | Current Version | Previous Version | Text Only | Print | Product List | Glossary On
Versions: 1 2 3 4 5 6 7 8 9 10 11 12 13 14 15 16 17 18 19 20 21 22 23 24 25
000
FTUS44 KFWD 301400 AAA
TAFDAL
TAF AMD
KDAL 301452Z 3015/0112 16009KT P6SM BKN050 BKN250=

USA.gov is the U.S. government's official web portal to all federal, state and local government web resources and services.